Location: Nied?wied?
(53.3665°N, 14.8184°E)
Time: 00:23:51
(UTC+00:00)

Lacrosse 4 Rocket - Pass Details

Date: 03 March 2021
Orbit: 537 x 620 km, 68.0° (Epoch: 11 April)

Event Time Altitude Azimuth Distance (km) Brightness Sun altitude
Rises 19:12:10 0° 200° (SSW) 2,832 5.0 -22.7°
Reaches altitude 10° 19:14:25 10° 195° (SSW) 1,946 4.0 -23.1°
Enters shadow 19:14:32 11° 195° (SSW) 1,902 4.0 -23.1°
